Orbital Elements at Epoch 2459200.5 (2020-Dec-17.0) TDB
Reference: JPL 19 (heliocentric ecliptic J2000)
Element | Value | Uncertainty (1-sigma) | Units |
e | .208836529332483 | 4.1203e-08 | |
a | 2.210193569090549 | 8.212e-09 | au |
q | 1.748624414968705 | 9.1279e-08 | au |
i | 1.609137590077418 | 4.534e-06 | deg |
node | 34.37309139265752 | 0.00016723 | deg |
peri | 230.2961679175833 | 0.0001676 | deg |
M | 250.0629726989825 | 1.092e-05 | deg |
tp | 2459567.009623068558 (2021-Dec-18.50962307) | 3.7156e-05 | TDB |
period | 1200.173113135103 3.29 | 6.6889e-06 1.831e-08 | d yr |
n | .2999567279586897 | 1.6717e-09 | deg/d |
Q | 2.671762723212393 | 9.927e-09 | au |
|
| | Orbit Determination Parameters
Additional Information
|